Time,TemperatureF,DewpointF,PressureIn,WindDirection,WindDirectionDegrees,WindSpeedMPH,WindSpeedGustMPH,Humidity,HourlyPrecipIn,Conditions,Clouds,dailyrainin,SoftwareType,DateUTC
2013-06-20 00:02:00,64.0,-99.9,30.12,West,267,8.0,-999.0,-999,-99.99,,,-99.99,,2013-06-20 04:02:00,
2013-06-20 00:12:00,64.0,-99.9,30.12,West,267,8.0,-999.0,-999,-99.99,,,-99.99,,2013-06-20 04:12:00,
2013-06-20 00:23:00,64.0,-99.9,30.12,WSW,246,8.0,-999.0,-999,-99.99,,,-99.99,,2013-06-20 04:23:00,
2013-06-20 00:34:00,64.0,-99.9,30.12,WSW,246,8.0,-999.0,-999,-99.99,,,-99.99,,2013-06-20 04:34:00,
2013-06-20 00:44:00,64.0,-99.9,30.12,WSW,246,8.0,-999.0,-999,-99.99,,,-99.99,,2013-06-20 04:44:00,
2013-06-20 00:54:00,64.0,-99.9,30.12,West,267,7.0,-999.0,-999,-99.99,,,-99.99,,2013-06-20 04:54:00,
2013-06-20 01:02:00,64.0,-99.9,30.12,West,267,7.0,-999.0,-999,-99.99,,,-99.99,,2013-06-20 05:02:00,
2013-06-20 01:12:00,64.0,-99.9,30.12,West,267,7.0,-999.0,-999,-99.99,,,-99.99,,2013-06-20 05:12:00,
2013-06-20 01:22:00,64.0,-99.9,30.14,West,260,6.0,-999.0,-999,-99.99,,,-99.99,,2013-06-20 05:22:00,
2013-06-20 01:33:00,64.0,-99.9,30.14,West,260,6.0,-999.0,-999,-99.99,,,-99.99,,2013-06-20 05:33:00,
2013-06-20 01:44:00,63.0,-99.9,30.14,West,276,3.0,-999.0,-999,-99.99,,,-99.99,,2013-06-20 05:44:00,
2013-06-20 01:53:00,63.0,-99.9,30.14,West,276,3.0,-999.0,-999,-99.99,,,-99.99,,2013-06-20 05:53:00,
2013-06-20 02:02:00,63.0,-99.9,30.14,West,276,3.0,-999.0,-999,-99.99,,,-99.99,,2013-06-20 06:02:00,
2013-06-20 02:12:00,63.0,-99.9,30.14,West,276,3.0,-999.0,-999,-99.99,,,-99.99,,2013-06-20 06:12:00,
2013-06-20 02:22:00,63.0,-99.9,30.15,WSW,242,4.0,-999.0,-999,-99.99,,,-99.99,,2013-06-20 06:22:00,
2013-06-20 03:44:00,63.0,-99.9,30.15,West,265,3.0,-999.0,-999,-99.99,,,-99.99,,2013-06-20 07:44:00,
2013-06-20 04:22:00,63.0,-99.9,30.15,West,259,4.0,-999.0,-999,-99.99,,,-99.99,,2013-06-20 08:22:00,
2013-06-20 04:43:00,63.0,-99.9,30.15,SW,233,3.0,-999.0,-999,-99.99,,,-99.99,,2013-06-20 08:43:00,
2013-06-20 06:44:00,63.0,-99.9,30.19,SW,235,4.0,-999.0,-999,-99.99,,,-99.99,,2013-06-20 10:44:00,
2013-06-20 06:53:00,63.0,-99.9,30.19,SW,235,4.0,-999.0,-999,-99.99,,,-99.99,,2013-06-20 10:53:00,
2013-06-20 07:02:00,63.0,-99.9,30.19,SW,235,4.0,-999.0,-999,-99.99,,,-99.99,,2013-06-20 11:02:00,
2013-06-20 07:12:00,63.0,-99.9,30.19,SW,235,4.0,-999.0,-999,-99.99,,,-99.99,,2013-06-20 11:12:00,
2013-06-20 07:22:00,63.0,-99.9,30.21,West,271,4.0,-999.0,-999,-99.99,,,-99.99,,2013-06-20 11:22:00,
2013-06-20 07:34:00,63.0,-99.9,30.21,West,271,4.0,-999.0,-999,-99.99,,,-99.99,,2013-06-20 11:34:00,
2013-06-20 07:43:00,63.0,-99.9,30.21,West,271,4.0,-999.0,-999,-99.99,,,-99.99,,2013-06-20 11:43:00,
2013-06-20 07:53:00,64.0,-99.9,30.21,West,272,4.0,-999.0,-999,-99.99,,,-99.99,,2013-06-20 11:53:00,
2013-06-20 08:02:00,64.0,-99.9,30.21,West,272,4.0,-999.0,-999,-99.99,,,-99.99,,2013-06-20 12:02:00,
2013-06-20 08:12:00,64.0,-99.9,30.21,West,272,4.0,-999.0,-999,-99.99,,,-99.99,,2013-06-20 12:12:00,
2013-06-20 08:22:00,65.0,-99.9,30.22,WSW,247,5.0,-999.0,-999,-99.99,,,-99.99,,2013-06-20 12:22:00,
2013-06-20 08:34:00,65.0,-99.9,30.22,WSW,247,5.0,-999.0,-999,-99.99,,,-99.99,,2013-06-20 12:34:00,
2013-06-20 08:43:00,66.0,-99.9,30.21,SW,231,2.0,-999.0,-999,-99.99,,,-99.99,,2013-06-20 12:43:00,
2013-06-20 08:53:00,66.0,-99.9,30.21,SW,231,2.0,-999.0,-999,-99.99,,,-99.99,,2013-06-20 12:53:00,
2013-06-20 09:02:00,66.0,-99.9,30.21,SW,231,2.0,-999.0,-999,-99.99,,,-99.99,,2013-06-20 13:02:00,
2013-06-20 09:12:00,66.0,-99.9,30.21,SW,231,2.0,-999.0,-999,-99.99,,,-99.99,,2013-06-20 13:12:00,
2013-06-20 09:22:00,68.0,-99.9,30.22,South,177,5.0,-999.0,-999,-99.99,,,-99.99,,2013-06-20 13:22:00,
2013-06-20 09:33:00,68.0,-99.9,30.22,South,177,5.0,-999.0,-999,-99.99,,,-99.99,,2013-06-20 13:33:00,
2013-06-20 09:43:00,66.0,-99.9,30.22,SSW,205,8.0,-999.0,-999,-99.99,,,-99.99,,2013-06-20 13:43:00,
2013-06-20 09:53:00,66.0,-99.9,30.22,SSW,205,8.0,-999.0,-999,-99.99,,,-99.99,,2013-06-20 13:53:00,
2013-06-20 10:02:00,66.0,-99.9,30.22,SSW,205,8.0,-999.0,-999,-99.99,,,-99.99,,2013-06-20 14:02:00,
2013-06-20 10:11:00,66.0,-99.9,30.22,SSW,205,8.0,-999.0,-999,-99.99,,,-99.99,,2013-06-20 14:11:00,
2013-06-20 10:22:00,66.0,-99.9,30.22,SSW,212,10.0,-999.0,-999,-99.99,,,-99.99,,2013-06-20 14:22:00,
2013-06-20 10:33:00,66.0,-99.9,30.22,SSW,212,10.0,-999.0,-999,-99.99,,,-99.99,,2013-06-20 14:33:00,
2013-06-20 10:42:00,66.0,-99.9,30.22,SSW,212,10.0,-999.0,-999,-99.99,,,-99.99,,2013-06-20 14:42:00,
2013-06-20 10:53:00,66.0,-99.9,30.22,SSW,200,11.0,-999.0,-999,-99.99,,,-99.99,,2013-06-20 14:53:00,
2013-06-20 11:02:00,66.0,-99.9,30.22,SSW,200,11.0,-999.0,-999,-99.99,,,-99.99,,2013-06-20 15:02:00,
2013-06-20 11:12:00,66.0,-99.9,30.22,SSW,200,11.0,-999.0,-999,-99.99,,,-99.99,,2013-06-20 15:12:00,
2013-06-20 11:22:00,66.0,-99.9,30.22,SSW,196,12.0,-999.0,-999,-99.99,,,-99.99,,2013-06-20 15:22:00,
2013-06-20 11:33:00,66.0,-99.9,30.22,SSW,196,12.0,-999.0,-999,-99.99,,,-99.99,,2013-06-20 15:33:00,
2013-06-20 11:43:00,66.0,-99.9,30.22,SW,214,10.0,-999.0,-999,-99.99,,,-99.99,,2013-06-20 15:43:00,
2013-06-20 11:53:00,66.0,-99.9,30.22,SW,214,10.0,-999.0,-999,-99.99,,,-99.99,,2013-06-20 15:53:00,
2013-06-20 12:02:00,66.0,-99.9,30.22,SW,214,10.0,-999.0,-999,-99.99,,,-99.99,,2013-06-20 16:02:00,
2013-06-20 12:12:00,66.0,-99.9,30.22,SW,214,10.0,-999.0,-999,-99.99,,,-99.99,,2013-06-20 16:12:00,
2013-06-20 12:22:00,67.0,-99.9,30.21,SSW,212,10.0,-999.0,-999,-99.99,,,-99.99,,2013-06-20 16:22:00,
2013-06-20 12:30:00,69.0,-99.9,30.22,SW,217,9.0,-999.0,-999,-99.99,,,-99.99,,2013-06-20 16:30:00,
2013-06-20 12:33:00,67.0,-99.9,30.21,SSW,212,10.0,-999.0,-999,-99.99,,,-99.99,,2013-06-20 16:33:00,
2013-06-20 12:43:00,67.0,-99.9,30.21,SSW,212,10.0,-999.0,-999,-99.99,,,-99.99,,2013-06-20 16:43:00,
2013-06-20 12:53:00,69.0,-99.9,30.22,SW,217,9.0,-999.0,-999,-99.99,,,-99.99,,2013-06-20 16:53:00,
2013-06-20 13:02:00,69.0,-99.9,30.22,SW,217,9.0,-999.0,-999,-99.99,,,-99.99,,2013-06-20 17:02:00,
2013-06-20 13:12:00,69.0,-99.9,30.22,SW,217,9.0,-999.0,-999,-99.99,,,-99.99,,2013-06-20 17:12:00,
2013-06-20 13:22:00,69.0,-99.9,30.22,SW,217,9.0,-999.0,-999,-99.99,,,-99.99,,2013-06-20 17:22:00,
2013-06-20 13:43:00,69.0,-99.9,30.21,SW,227,14.0,-999.0,-999,-99.99,,,-99.99,,2013-06-20 17:43:00,
2013-06-20 13:53:00,69.0,-99.9,30.21,SW,227,14.0,-999.0,-999,-99.99,,,-99.99,,2013-06-20 17:53:00,
2013-06-20 14:01:00,69.0,-99.9,30.21,SW,227,14.0,-999.0,-999,-99.99,,,-99.99,,2013-06-20 18:01:00,
2013-06-20 14:12:00,69.0,-99.9,30.21,SW,227,14.0,-999.0,-999,-99.99,,,-99.99,,2013-06-20 18:12:00,
2013-06-20 14:22:00,72.0,-99.9,30.21,WSW,246,13.0,-999.0,-999,-99.99,,,-99.99,,2013-06-20 18:22:00,
2013-06-20 14:34:00,72.0,-99.9,30.21,WSW,246,13.0,-999.0,-999,-99.99,,,-99.99,,2013-06-20 18:34:00,
2013-06-20 14:43:00,72.0,-99.9,30.21,WSW,246,13.0,-999.0,-999,-99.99,,,-99.99,,2013-06-20 18:43:00,
2013-06-20 14:53:00,72.0,-99.9,30.21,WSW,244,15.0,-999.0,-999,-99.99,,,-99.99,,2013-06-20 18:53:00,
2013-06-20 15:02:00,72.0,-99.9,30.21,WSW,244,15.0,-999.0,-999,-99.99,,,-99.99,,2013-06-20 19:02:00,
2013-06-20 15:11:00,72.0,-99.9,30.21,WSW,244,15.0,-999.0,-999,-99.99,,,-99.99,,2013-06-20 19:11:00,
2013-06-20 15:22:00,70.0,-99.9,30.22,WSW,258,16.0,-999.0,-999,-99.99,,,-99.99,,2013-06-20 19:22:00,
2013-06-20 15:34:00,70.0,-99.9,30.22,WSW,258,16.0,-999.0,-999,-99.99,,,-99.99,,2013-06-20 19:34:00,
2013-06-20 15:44:00,70.0,-99.9,30.22,WSW,258,16.0,-999.0,-999,-99.99,,,-99.99,,2013-06-20 19:44:00,
2013-06-20 15:53:00,69.0,-99.9,30.21,SW,234,17.0,-999.0,-999,-99.99,,,-99.99,,2013-06-20 19:53:00,
2013-06-20 16:02:00,69.0,-99.9,30.21,SW,234,17.0,-999.0,-999,-99.99,,,-99.99,,2013-06-20 20:02:00,
2013-06-20 16:11:00,69.0,-99.9,30.21,SW,234,17.0,-999.0,-999,-99.99,,,-99.99,,2013-06-20 20:11:00,
2013-06-20 16:22:00,70.0,-99.9,30.21,WSW,256,17.0,-999.0,-999,-99.99,,,-99.99,,2013-06-20 20:22:00,
2013-06-20 16:33:00,70.0,-99.9,30.21,WSW,256,17.0,-999.0,-999,-99.99,,,-99.99,,2013-06-20 20:33:00,
2013-06-20 16:53:00,70.0,-99.9,30.21,WSW,240,12.0,-999.0,-999,-99.99,,,-99.99,,2013-06-20 20:53:00,
2013-06-20 17:01:00,70.0,-99.9,30.21,WSW,240,12.0,-999.0,-999,-99.99,,,-99.99,,2013-06-20 21:01:00,